Time,TemperatureF,DewpointF,PressureIn,WindDirection,WindDirectionDegrees,WindSpeedMPH,WindSpeedGustMPH,Humidity,HourlyPrecipIn,Conditions,Clouds,dailyrainin,SoftwareType,DateUTC
2013-05-27 00:07:00,66.6,54.0,30.11,SSW,212,0.0,5.0,64,0.00,,,0.00,weatherlink.com 1.10,2013-05-27 04:07:00,
2013-05-27 00:20:00,66.2,54.0,30.11,SSE,156,2.0,5.0,65,0.00,,,0.00,weatherlink.com 1.10,2013-05-27 04:20:00,
2013-05-27 00:35:00,65.8,54.0,30.11,SW,225,0.0,7.0,66,0.00,,,0.00,weatherlink.com 1.10,2013-05-27 04:35:00,
2013-05-27 00:50:00,65.4,54.0,30.11,SSE,158,0.0,4.0,66,0.00,,,0.00,weatherlink.com 1.10,2013-05-27 04:50:00,
2013-05-27 01:05:00,64.8,54.0,30.11,SSE,165,0.0,2.0,68,0.00,,,0.00,weatherlink.com 1.10,2013-05-27 05:05:00,
2013-05-27 01:20:00,64.2,54.0,30.10,South,170,0.0,2.0,69,0.00,,,0.00,weatherlink.com 1.10,2013-05-27 05:20:00,
2013-05-27 01:35:00,63.4,54.0,30.10,SE,135,0.0,0.0,71,0.00,,,0.00,weatherlink.com 1.10,2013-05-27 05:35:00,
2013-05-27 01:50:00,62.5,54.0,30.10,SE,136,0.0,0.0,73,0.00,,,0.00,weatherlink.com 1.10,2013-05-27 05:50:00,
2013-05-27 02:05:00,62.0,54.0,30.09,SE,135,0.0,0.0,74,0.00,,,0.00,weatherlink.com 1.10,2013-05-27 06:05:00,
2013-05-27 02:20:00,61.6,54.0,30.09,SE,135,0.0,1.0,76,0.00,,,0.00,weatherlink.com 1.10,2013-05-27 06:20:00,
2013-05-27 02:35:00,62.0,54.0,30.09,SSE,160,0.0,3.0,74,0.00,,,0.00,weatherlink.com 1.10,2013-05-27 06:35:00,
2013-05-27 02:50:00,62.4,54.0,30.08,ESE,110,1.0,4.0,73,0.00,,,0.00,weatherlink.com 1.10,2013-05-27 06:50:00,
2013-05-27 03:05:00,62.3,54.0,30.08,East,79,0.0,1.0,73,0.00,,,0.00,weatherlink.com 1.10,2013-05-27 07:05:00,
2013-05-27 03:20:00,62.2,53.0,30.07,SE,143,0.0,3.0,73,0.00,,,0.00,weatherlink.com 1.10,2013-05-27 07:20:00,
2013-05-27 03:35:00,62.3,53.0,30.07,South,174,0.0,3.0,72,0.00,,,0.00,weatherlink.com 1.10,2013-05-27 07:35:00,
2013-05-27 03:50:00,61.7,53.0,30.07,South,172,0.0,1.0,74,0.00,,,0.00,weatherlink.com 1.10,2013-05-27 07:50:00,
2013-05-27 04:05:00,60.6,53.0,30.07,South,172,0.0,0.0,77,0.00,,,0.00,weatherlink.com 1.10,2013-05-27 08:05:00,
2013-05-27 04:20:00,59.8,53.0,30.07,South,172,0.0,1.0,79,0.00,,,0.00,weatherlink.com 1.10,2013-05-27 08:20:00,
2013-05-27 04:35:00,59.8,53.0,30.07,ENE,77,2.0,2.0,79,0.00,,,0.00,weatherlink.com 1.10,2013-05-27 08:35:00,
2013-05-27 04:50:00,60.4,53.0,30.08,SE,130,0.0,2.0,77,0.00,,,0.00,weatherlink.com 1.10,2013-05-27 08:50:00,
2013-05-27 05:05:00,60.1,53.0,30.08,SSE,148,0.0,0.0,78,0.00,,,0.00,weatherlink.com 1.10,2013-05-27 09:05:00,
2013-05-27 05:20:00,59.7,54.0,30.08,SSE,148,0.0,1.0,80,0.00,,,0.00,weatherlink.com 1.10,2013-05-27 09:20:00,
2013-05-27 05:35:00,59.7,54.0,30.08,SSE,148,0.0,0.0,80,0.00,,,0.00,weatherlink.com 1.10,2013-05-27 09:35:00,
2013-05-27 05:50:00,59.6,54.0,30.08,SSE,148,0.0,0.0,81,0.00,,,0.00,weatherlink.com 1.10,2013-05-27 09:50:00,
2013-05-27 06:05:00,59.3,54.0,30.08,SSE,148,0.0,7.0,81,0.00,,,0.00,weatherlink.com 1.10,2013-05-27 10:05:00,
2013-05-27 06:20:00,58.7,53.0,30.09,SSE,148,0.0,0.0,82,0.00,,,0.00,weatherlink.com 1.10,2013-05-27 10:20:00,
2013-05-27 06:35:00,58.5,53.0,30.09,SSE,148,0.0,1.0,83,0.00,,,0.00,weatherlink.com 1.10,2013-05-27 10:35:00,
2013-05-27 06:50:00,58.3,53.0,30.09,SSE,148,0.0,1.0,83,0.00,,,0.00,weatherlink.com 1.10,2013-05-27 10:50:00,
2013-05-27 07:05:00,58.5,54.0,30.09,SSE,148,0.0,1.0,84,0.00,,,0.00,weatherlink.com 1.10,2013-05-27 11:05:00,
2013-05-27 07:20:00,59.3,54.0,30.09,SE,128,0.0,1.0,82,0.00,,,0.00,weatherlink.com 1.10,2013-05-27 11:20:00,
2013-05-27 07:35:00,62.2,55.0,30.10,SSE,152,1.0,2.0,76,0.00,,,0.00,weatherlink.com 1.10,2013-05-27 11:35:00,
2013-05-27 07:50:00,63.9,55.0,30.09,East,95,2.0,4.0,72,0.00,,,0.00,weatherlink.com 1.10,2013-05-27 11:50:00,
2013-05-27 08:05:00,65.0,55.0,30.09,ESE,119,2.0,3.0,70,0.00,,,0.00,weatherlink.com 1.10,2013-05-27 12:05:00,
2013-05-27 08:20:00,65.9,55.0,30.09,SE,139,3.0,5.0,69,0.00,,,0.00,weatherlink.com 1.10,2013-05-27 12:20:00,
2013-05-27 08:35:00,67.4,56.0,30.09,SSW,200,2.0,4.0,67,0.00,,,0.00,weatherlink.com 1.10,2013-05-27 12:35:00,
2013-05-27 08:50:00,67.2,56.0,30.08,SSE,149,1.0,4.0,67,0.00,,,0.00,weatherlink.com 1.10,2013-05-27 12:50:00,
2013-05-27 09:05:00,68.9,57.0,30.07,ESE,117,0.0,5.0,65,0.00,,,0.00,weatherlink.com 1.10,2013-05-27 13:05:00,
2013-05-27 09:20:00,71.1,58.0,30.07,SE,126,2.0,3.0,63,0.00,,,0.00,weatherlink.com 1.10,2013-05-27 13:20:00,
2013-05-27 09:35:00,72.0,58.0,30.06,SW,232,0.0,3.0,62,0.00,,,0.00,weatherlink.com 1.10,2013-05-27 13:35:00,
2013-05-27 09:51:00,72.6,59.0,30.06,South,186,2.0,6.0,62,0.00,,,0.00,weatherlink.com 1.10,2013-05-27 13:51:00,
2013-05-27 10:06:00,74.1,59.0,30.05,SSE,147,0.0,4.0,59,0.00,,,0.00,weatherlink.com 1.10,2013-05-27 14:06:00,
2013-05-27 10:21:00,76.0,59.0,30.05,South,188,0.0,4.0,55,0.00,,,0.00,weatherlink.com 1.10,2013-05-27 14:21:00,
2013-05-27 10:36:00,76.5,60.0,30.04,West,259,0.0,3.0,57,0.00,,,0.00,weatherlink.com 1.10,2013-05-27 14:36:00,
2013-05-27 10:51:00,77.4,60.0,30.04,West,276,0.0,4.0,55,0.00,,,0.00,weatherlink.com 1.10,2013-05-27 14:51:00,
2013-05-27 11:06:00,77.5,59.0,30.04,SW,225,2.0,7.0,53,0.00,,,0.00,weatherlink.com 1.10,2013-05-27 15:06:00,
2013-05-27 11:21:00,78.8,59.0,30.04,WNW,295,3.0,5.0,51,0.00,,,0.00,weatherlink.com 1.10,2013-05-27 15:21:00,
2013-05-27 11:36:00,79.8,60.0,30.04,West,281,3.0,9.0,51,0.00,,,0.00,weatherlink.com 1.10,2013-05-27 15:36:00,
2013-05-27 12:06:00,81.4,59.0,30.04,SSE,152,4.0,10.0,47,0.00,,,0.00,weatherlink.com 1.10,2013-05-27 16:06:00,
2013-05-27 12:21:00,82.0,60.0,30.03,NNW,329,2.0,7.0,48,0.00,,,0.00,weatherlink.com 1.10,2013-05-27 16:21:00,
2013-05-27 12:36:00,82.5,58.0,30.03,SW,223,8.0,11.0,43,0.00,,,0.00,weatherlink.com 1.10,2013-05-27 16:36:00,
2013-05-27 12:51:00,82.7,59.0,30.02,West,269,3.0,11.0,44,0.00,,,0.00,weatherlink.com 1.10,2013-05-27 16:51:00,
2013-05-27 13:06:00,83.7,58.0,30.02,West,278,4.0,11.0,42,0.00,,,0.00,weatherlink.com 1.10,2013-05-27 17:06:00,
2013-05-27 13:36:00,84.8,56.0,30.00,WSW,238,2.0,16.0,38,0.00,,,0.00,weatherlink.com 1.10,2013-05-27 17:36:00,
2013-05-27 13:52:00,85.7,53.0,30.00,West,280,5.0,16.0,33,0.00,,,0.00,weatherlink.com 1.10,2013-05-27 17:52:00,
2013-05-27 14:22:00,85.7,56.0,29.98,WSW,240,3.0,12.0,36,0.00,,,0.00,weatherlink.com 1.10,2013-05-27 18:22:00,
2013-05-27 14:37:00,85.9,55.0,29.98,SSE,150,8.0,8.0,35,0.00,,,0.00,weatherlink.com 1.10,2013-05-27 18:37:00,
2013-05-27 15:07:00,85.9,57.0,29.97,NW,312,2.0,10.0,37,0.00,,,0.00,weatherlink.com 1.10,2013-05-27 19:07:00,
2013-05-27 15:22:00,85.1,57.0,29.97,NW,304,2.0,15.0,38,0.00,,,0.00,weatherlink.com 1.10,2013-05-27 19:22:00,
2013-05-27 16:07:00,86.1,58.0,29.98,WSW,256,6.0,12.0,38,0.00,,,0.00,weatherlink.com 1.10,2013-05-27 20:07:00,
2013-05-27 16:22:00,86.0,55.0,29.97,SW,217,6.0,12.0,35,0.00,,,0.00,weatherlink.com 1.10,2013-05-27 20:22:00,
2013-05-27 16:36:00,86.7,57.0,29.96,SW,222,2.0,10.0,36,0.00,,,0.00,weatherlink.com 1.10,2013-05-27 20:36:00,
2013-05-27 16:51:00,87.0,58.0,29.95,NW,305,5.0,9.0,37,0.00,,,0.00,weatherlink.com 1.10,2013-05-27 20:51:00,
2013-05-27 17:06:00,86.5,57.0,29.95,SW,228,3.0,12.0,37,0.00,,,0.00,weatherlink.com 1.10,2013-05-27 21:06:00,
2013-05-27 17:21:00,85.7,58.0,29.95,SW,235,4.0,14.0,39,0.00,,,0.00,weatherlink.com 1.10,2013-05-27 21:21:00,
2013-05-27 17:36:00,86.0,58.0,29.94,NW,305,3.0,9.0,38,0.00,,,0.00,weatherlink.com 1.10,2013-05-27 21:36:00,
2013-05-27 17:51:00,85.9,57.0,29.94,WNW,293,4.0,14.0,37,0.00,,,0.00,weatherlink.com 1.10,2013-05-27 21:51:00,
2013-05-27 18:21:00,85.1,58.0,29.93,NW,322,1.0,11.0,40,0.00,,,0.00,weatherlink.com 1.10,2013-05-27 22:21:00,
2013-05-27 18:36:00,84.6,58.0,29.93,WNW,285,5.0,10.0,41,0.00,,,0.00,weatherlink.com 1.10,2013-05-27 22:36:00,
2013-05-27 18:51:00,84.2,59.0,29.93,West,274,2.0,12.0,43,0.00,,,0.00,weatherlink.com 1.10,2013-05-27 22:51:00,
2013-05-27 19:21:00,82.4,60.0,29.93,SW,229,2.0,7.0,47,0.00,,,0.00,weatherlink.com 1.10,2013-05-27 23:21:00,
2013-05-27 19:52:00,81.8,61.0,29.93,WNW,288,1.0,7.0,49,0.00,,,0.00,weatherlink.com 1.10,2013-05-27 23:52:00,
2013-05-27 20:07:00,81.3,61.0,29.93,SE,129,4.0,5.0,51,0.00,,,0.00,weatherlink.com 1.10,2013-05-28 00:07:00,
2013-05-27 20:22:00,80.7,61.0,29.93,SSW,210,0.0,5.0,52,0.00,,,0.00,weatherlink.com 1.10,2013-05-28 00:22:00,
2013-05-27 20:37:00,80.3,61.0,29.92,WSW,246,1.0,7.0,52,0.00,,,0.00,weatherlink.com 1.10,2013-05-28 00:37:00,
2013-05-27 20:52:00,79.6,61.0,29.92,SSE,166,2.0,5.0,53,0.00,,,0.00,weatherlink.com 1.10,2013-05-28 00:52:00,
2013-05-27 21:22:00,78.3,61.0,29.91,South,186,2.0,2.0,55,0.00,,,0.00,weatherlink.com 1.10,2013-05-28 01:22:00,
2013-05-27 21:37:00,77.7,61.0,29.91,WSW,256,1.0,3.0,56,0.00,,,0.00,weatherlink.com 1.10,2013-05-28 01:37:00,
2013-05-27 21:52:00,77.0,61.0,29.92,SW,218,0.0,2.0,58,0.00,,,0.00,weatherlink.com 1.10,2013-05-28 01:52:00,
2013-05-27 22:07:00,76.1,62.0,29.93,SW,232,0.0,1.0,61,0.00,,,0.00,weatherlink.com 1.10,2013-05-28 02:07:00,
2013-05-27 22:22:00,76.1,61.0,29.94,SW,215,1.0,2.0,60,0.00,,,0.00,weatherlink.com 1.10,2013-05-28 02:22:00,
2013-05-27 22:37:00,76.3,61.0,29.95,WSW,240,0.0,3.0,60,0.00,,,0.00,weatherlink.com 1.10,2013-05-28 02:37:00,
2013-05-27 22:52:00,76.2,61.0,29.96,WSW,256,0.0,2.0,60,0.00,,,0.00,weatherlink.com 1.10,2013-05-28 02:52:00,
2013-05-27 23:07:00,76.5,61.0,29.97,SE,142,0.0,4.0,60,0.00,,,0.00,weatherlink.com 1.10,2013-05-28 03:07:00,
2013-05-27 23:22:00,76.3,61.0,29.96,ENE,63,0.0,2.0,60,0.00,,,0.00,weatherlink.com 1.10,2013-05-28 03:22:00,
2013-05-27 23:37:00,75.5,61.0,29.96,SW,233,0.0,1.0,61,0.00,,,0.00,weatherlink.com 1.10,2013-05-28 03:37:00,
2013-05-27 23:52:00,74.0,61.0,29.95,SW,218,0.0,2.0,65,0.00,,,0.00,weatherlink.com 1.10,2013-05-28 03:52:00,